Regional Weather Roundup
Issued by NWS State College, PA

Home | Current Version | Previous Version | Graphics & Text | Print | Product List | Glossary Off
Versions: 1 2 3 4 5 6 7 8 9 10 11 12 13 14 15 16 17 18 19 20 21 22 23 24 25 26 27 28 29 30 31 32 33 34 35 36 37 38 39 40 41 42 43 44 45 46 47 48 49 50

000
ASUS41 KCTP 271010
RWRCTP

REGIONAL WEATHER ROUNDUP
NATIONAL WEATHER SERVICE STATE COLLEGE PA
500 AM EST TUE JAN 27 2015

Note: "fair" indicates few or no clouds below 12,000 feet with no
significant weather and/or obstructions to visibility.

* = STATION THAT DOES NOT REPORT PRECIPITATION /E.G. RAIN...SNOW...ETC/
    THUNDER OR FOG.

PAZ002>004-007>009-013>016-020>023-029>032-271100-
WESTERN PENNSYLVANIA

CITY           SKY/WX    TMP DP  RH WIND       PRES   REMARKS
ERIE           FLURRIES  20  14  77 NE14      29.92R WCI   7
MEADVILLE      CLOUDY    16  13  88 N9        29.84R WCI   4
FRANKLIN*      CLOUDY    16  10  79 NW6       29.83R WCI   7
NEW CASTLE     FLURRIES  18  15  88 NW6       29.88R WCI  10
BEAVER COUNTY  NOT AVBL
BUTLER*        CLOUDY    18  16  93 W7        29.85S WCI   8
PITTSBURGH INT LGT SNOW  19  16  88 NW8       29.85R FOG     WCI   9
PITTSBURGH     CLOUDY    19  13  77 NW7       29.84R WCI  10
INDIANA*       CLOUDY    19  18  93 NW7       29.84R WCI  10
LATROBE        FLURRIES  19  19 100 W6        29.86R WCI  11
WASHINGTON CO* CLOUDY    19  16  86 CALM      29.87S
$$

PAZ004>006-010>012-017>019-024>028-033>037-041-042-045-046-049>053-271100-
CENTRAL PENNSYLVANIA

CITY           SKY/WX    TMP DP  RH WIND       PRES   REMARKS
BRADFORD       LGT SNOW  12   8  84 N8        29.76R FOG     WCI   0
DUBOIS         CLOUDY    15  12  88 NW6       29.76R WCI   6
CLEARFIELD     LGT SNOW  18  14  84 N3        29.78R FOG
JOHNSTOWN      LGT SNOW  16  13  88 W14       29.71S FOG     WCI   2
ALTOONA        CLOUDY    21  17  84 NW7       29.76R WCI  12
STATE COLLEGE  FLURRIES  20  17  86 N3        29.79R
WILLIAMSPORT   FLURRIES  22  13  68 W8        29.81S WCI  12
SELINSGROVE    LGT SNOW  24  18  77 N12       29.79F WCI  13
FT INDIANTOWN  MOCLDY    26  18  74 NW15G26   29.72S WCI  13
CAPITAL CITY   FLURRIES  27  20  75 NW8       29.76S
HARRISBURG     FLURRIES  26  20  77 N10       29.75S
YORK           FLURRIES  25  21  85 NW9       29.74S
$$

PAZ038>040-043-044-047-048-054-055-060>062-067>071-271100-
EASTERN PENNSYLVANIA

CITY           SKY/WX    TMP DP  RH WIND       PRES   REMARKS
SCRANTON       LGT SNOW  20  12  71 N7        29.74R WCI  11
MOUNT POCONO   LGT SNOW  17  12  80 NW13G22   29.61F WCI   4
ALLENTOWN      LGT SNOW  26  19  74 NW6       29.72S
QUAKERTOWN*    NOT AVBL
READING        CLOUDY    27  17  66 N12       29.73R
LANCASTER      CLOUDY    26  18  71 NW7       29.73R
COATESVILLE    FLURRIES  27  23  86 N7        29.71R
POTTSTOWN      LGT SNOW  24  20  84 N6        29.73R FOG
BLUE BELL      CLOUDY    27  21  80 N5        29.70S
DOYLESTOWN     LGT SNOW  22  20  92 N12G24    29.69S FOG     WCI  10
WILLOW GROVE   NOT AVBL
NORTH PHILA    LGT SNOW  26  18  71 N16       29.71S WCI  14
PHILADELPHIA   LGT SNOW  25  21  85 N16G23    29.72R WCI  12
$$



USA.gov is the U.S. government's official web portal to all federal, state and local government web resources and services.